TimeMST,TemperatureF,Dew PointF,Humidity,Sea Level PressureIn,VisibilityMPH,Wind Direction,Wind SpeedMPH,Gust SpeedMPH,PrecipitationIn,Events,Conditions,WindDirDegrees,DateUTC
12:51 AM,28.4,19.4,69,30.12,10.0,East,5.8,-,N/A,,Clear,90,2012-12-29 07:51:00
1:51 AM,28.0,19.0,69,30.06,10.0,Calm,Calm,-,N/A,,Clear,0,2012-12-29 08:51:00
2:51 AM,28.4,17.6,64,30.12,10.0,ESE,6.9,-,N/A,,Clear,110,2012-12-29 09:51:00
3:51 AM,30.9,18.0,59,30.06,10.0,East,3.5,-,N/A,,Unknown,90,2012-12-29 10:51:00
4:51 AM,30.9,19.0,61,30.04,10.0,East,5.8,-,N/A,,Clear,80,2012-12-29 11:51:00
5:51 AM,28.9,19.9,69,30.05,10.0,Calm,Calm,-,N/A,,Clear,0,2012-12-29 12:51:00
6:51 AM,30.9,19.0,61,30.06,10.0,ENE,3.5,-,N/A,,Clear,60,2012-12-29 13:51:00
7:51 AM,30.9,17.1,57,30.06,10.0,Calm,Calm,-,N/A,,Partly Cloudy,0,2012-12-29 14:51:00
8:51 AM,33.1,18.0,54,30.06,10.0,ENE,5.8,-,N/A,,Partly Cloudy,70,2012-12-29 15:51:00
9:51 AM,39.0,19.0,45,30.05,10.0,NNE,4.6,-,N/A,,Clear,20,2012-12-29 16:51:00
10:51 AM,42.1,18.0,38,30.05,10.0,NW,4.6,-,N/A,,Clear,320,2012-12-29 17:51:00
11:51 AM,46.0,17.1,31,30.00,10.0,West,3.5,-,N/A,,Clear,280,2012-12-29 18:51:00
12:51 PM,48.0,17.1,29,29.95,10.0,Variable,4.6,-,N/A,,Clear,0,2012-12-29 19:51:00
1:51 PM,48.9,16.0,27,29.91,10.0,Variable,3.5,-,N/A,,Unknown,0,2012-12-29 20:51:00
2:51 PM,48.9,16.0,27,29.89,10.0,West,5.8,-,N/A,,Clear,270,2012-12-29 21:51:00
3:51 PM,50.0,17.1,27,29.89,10.0,SW,9.2,-,N/A,,Clear,220,2012-12-29 22:51:00
4:51 PM,46.9,17.1,30,29.90,10.0,SW,10.4,-,N/A,,Clear,230,2012-12-29 23:51:00
5:51 PM,39.0,18.0,43,29.92,10.0,SW,6.9,-,N/A,,Clear,220,2012-12-30 00:51:00
6:51 PM,36.0,19.0,50,29.93,10.0,South,9.2,-,N/A,,Clear,190,2012-12-30 01:51:00
7:51 PM,33.1,19.0,56,29.94,10.0,Calm,Calm,-,N/A,,Clear,0,2012-12-30 02:51:00
8:51 PM,28.9,18.0,64,29.94,10.0,SSE,5.8,-,N/A,,Clear,150,2012-12-30 03:51:00
9:51 PM,28.0,18.0,66,29.94,10.0,Calm,Calm,-,N/A,,Unknown,0,2012-12-30 04:51:00
10:51 PM,25.0,18.0,75,29.94,10.0,South,3.5,-,N/A,,Clear,180,2012-12-30 05:51:00
11:51 PM,24.1,18.0,77,29.94,10.0,Calm,Calm,-,N/A,,Scattered Clouds,0,2012-12-30 06:51:00